Time,TemperatureF,DewpointF,PressureIn,WindDirection,WindDirectionDegrees,WindSpeedMPH,WindSpeedGustMPH,Humidity,HourlyPrecipIn,Conditions,Clouds,dailyrainin,SoftwareType,DateUTC
2013-06-07 00:01:00,55.5,55.5,30.07,ENE,74,0.0,1.0,100,0.05,,-RA,0.07,VWS V14.01,2013-06-07 04:01:00,
2013-06-07 00:06:00,55.5,55.5,30.07,ENE,74,1.0,3.0,100,0.04,,-RA,0.00,VWS V14.01,2013-06-07 04:06:00,
2013-06-07 00:11:00,55.6,55.6,30.06,ENE,74,0.0,0.0,100,0.04,,-RA,0.00,VWS V14.01,2013-06-07 04:11:00,
2013-06-07 00:16:00,55.5,55.5,30.06,ENE,70,0.0,2.0,100,0.04,,-RA,0.00,VWS V14.01,2013-06-07 04:16:00,
2013-06-07 00:21:00,55.5,55.5,30.06,ENE,70,1.0,4.0,100,0.05,,-RA,0.01,VWS V14.01,2013-06-07 04:21:00,
2013-06-07 00:26:00,55.6,55.6,30.06,East,84,1.0,1.0,100,0.05,,-RA,0.01,VWS V14.01,2013-06-07 04:26:00,
2013-06-07 00:31:00,55.5,55.5,30.06,East,85,2.0,3.0,100,0.06,,-RA,0.02,VWS V14.01,2013-06-07 04:31:00,
2013-06-07 00:36:00,55.5,55.5,30.06,ESE,108,1.0,2.0,100,0.06,,-RA,0.02,VWS V14.01,2013-06-07 04:36:00,
2013-06-07 00:41:00,55.5,55.5,30.06,ESE,105,0.0,1.0,100,0.06,,-RA,0.02,VWS V14.01,2013-06-07 04:41:00,
2013-06-07 00:46:00,55.5,55.5,30.06,ESE,105,1.0,1.0,100,0.06,,-RA,0.02,VWS V14.01,2013-06-07 04:46:00,
2013-06-07 00:51:00,55.5,55.5,30.06,NNE,16,0.0,0.0,100,0.07,,-RA,0.03,VWS V14.01,2013-06-07 04:51:00,
2013-06-07 00:56:00,55.4,55.4,30.05,NE,42,0.0,0.0,100,0.07,,-RA,0.03,VWS V14.01,2013-06-07 04:56:00,
2013-06-07 01:01:00,55.5,55.5,30.05,NE,44,0.0,1.0,100,0.07,,-RA,0.03,VWS V14.01,2013-06-07 05:01:00,
2013-06-07 01:06:00,55.5,55.5,30.05,East,83,0.0,2.0,100,0.04,,-RA,0.04,VWS V14.01,2013-06-07 05:06:00,
2013-06-07 01:11:00,55.5,55.5,30.05,East,83,0.0,0.0,100,0.04,,-RA,0.04,VWS V14.01,2013-06-07 05:11:00,
2013-06-07 01:16:00,55.5,55.5,30.06,East,83,0.0,1.0,100,0.04,,-RA,0.04,VWS V14.01,2013-06-07 05:16:00,
2013-06-07 01:21:00,55.5,55.5,30.05,East,83,0.0,1.0,100,0.04,,-RA,0.04,VWS V14.01,2013-06-07 05:21:00,
2013-06-07 01:27:00,55.6,55.6,30.05,East,83,0.0,0.0,100,0.04,,-RA,0.04,VWS V14.01,2013-06-07 05:27:00,
2013-06-07 01:32:00,55.6,55.6,30.05,East,83,0.0,0.0,100,0.04,,-RA,0.04,VWS V14.01,2013-06-07 05:32:00,
2013-06-07 01:37:00,55.6,55.6,30.05,East,83,0.0,3.0,100,0.04,,-RA,0.04,VWS V14.01,2013-06-07 05:37:00,
2013-06-07 01:42:00,55.6,55.6,30.05,East,83,1.0,2.0,100,0.04,,-RA,0.04,VWS V14.01,2013-06-07 05:42:00,
2013-06-07 01:47:00,55.6,55.6,30.05,East,83,1.0,2.0,100,0.05,,-RA,0.05,VWS V14.01,2013-06-07 05:47:00,
2013-06-07 01:52:00,55.6,55.6,30.05,East,83,0.0,0.0,100,0.05,,-RA,0.05,VWS V14.01,2013-06-07 05:52:00,
2013-06-07 01:57:00,55.6,55.6,30.05,East,83,0.0,0.0,100,0.05,,-RA,0.05,VWS V14.01,2013-06-07 05:57:00,
2013-06-07 02:02:00,55.6,55.6,30.04,East,80,1.0,2.0,100,0.05,,-RA,0.05,VWS V14.01,2013-06-07 06:02:00,
2013-06-07 02:07:00,55.6,55.6,30.03,East,80,0.0,0.0,100,0.02,,OVC060,0.05,VWS V14.01,2013-06-07 06:07:00,
2013-06-07 02:12:00,55.5,55.5,30.04,East,80,0.0,0.0,100,0.02,,OVC060,0.05,VWS V14.01,2013-06-07 06:12:00,
2013-06-07 02:17:00,55.5,55.5,30.03,East,80,0.0,0.0,100,0.03,,OVC060,0.06,VWS V14.01,2013-06-07 06:17:00,
2013-06-07 02:22:00,55.5,55.5,30.03,East,80,0.0,2.0,100,0.03,,OVC060,0.06,VWS V14.01,2013-06-07 06:22:00,
2013-06-07 02:27:00,55.6,55.6,30.03,ENE,68,0.0,3.0,100,0.03,,OVC060,0.06,VWS V14.01,2013-06-07 06:27:00,
2013-06-07 02:32:00,55.5,55.5,30.03,SE,125,0.0,2.0,100,0.03,,OVC060,0.06,VWS V14.01,2013-06-07 06:32:00,
2013-06-07 02:37:00,55.3,55.3,30.03,ENE,65,0.0,3.0,100,0.04,,OVC060,0.07,VWS V14.01,2013-06-07 06:37:00,
2013-06-07 02:42:00,55.3,55.3,30.03,ENE,65,0.0,0.0,100,0.04,,OVC060,0.07,VWS V14.01,2013-06-07 06:42:00,
2013-06-07 02:47:00,55.3,55.3,30.03,ENE,74,3.0,3.0,100,0.04,,OVC060,0.07,VWS V14.01,2013-06-07 06:47:00,
2013-06-07 02:52:00,55.3,55.3,30.03,ENE,78,0.0,1.0,100,0.04,,OVC060,0.07,VWS V14.01,2013-06-07 06:52:00,
2013-06-07 02:57:00,55.3,55.3,30.03,NE,55,0.0,1.0,100,0.04,,OVC060,0.07,VWS V14.01,2013-06-07 06:57:00,
2013-06-07 03:02:00,55.3,55.3,30.03,NE,54,0.0,0.0,100,0.02,,OVC060,0.07,VWS V14.01,2013-06-07 07:02:00,
2013-06-07 03:07:00,55.3,55.3,30.04,NE,54,0.0,1.0,100,0.02,,-RA,0.07,VWS V14.01,2013-06-07 07:07:00,
2013-06-07 03:12:00,55.3,55.3,30.03,ENE,66,0.0,2.0,100,0.02,,-RA,0.07,VWS V14.01,2013-06-07 07:12:00,
2013-06-07 03:17:00,55.3,55.3,30.03,ENE,66,0.0,1.0,100,0.03,,-RA,0.08,VWS V14.01,2013-06-07 07:17:00,
2013-06-07 03:22:00,55.2,55.2,30.03,ENE,66,0.0,0.0,100,0.03,,-RA,0.08,VWS V14.01,2013-06-07 07:22:00,
2013-06-07 03:27:00,55.2,55.2,30.03,ENE,66,0.0,3.0,100,0.03,,-RA,0.08,VWS V14.01,2013-06-07 07:27:00,
2013-06-07 03:32:00,55.2,55.2,30.03,ESE,117,1.0,1.0,100,0.03,,-RA,0.08,VWS V14.01,2013-06-07 07:32:00,
2013-06-07 03:37:00,55.1,55.1,30.02,ESE,109,0.0,0.0,100,0.04,,-RA,0.09,VWS V14.01,2013-06-07 07:37:00,
2013-06-07 03:42:00,55.0,55.0,30.03,ESE,109,0.0,0.0,100,0.04,,-RA,0.09,VWS V14.01,2013-06-07 07:42:00,
2013-06-07 03:47:00,55.0,55.0,30.02,ESE,109,0.0,1.0,100,0.05,,-RA,0.10,VWS V14.01,2013-06-07 07:47:00,
2013-06-07 03:52:00,55.0,55.0,30.03,ESE,104,0.0,1.0,100,0.05,,-RA,0.10,VWS V14.01,2013-06-07 07:52:00,
2013-06-07 03:57:00,54.9,54.9,30.03,East,79,1.0,2.0,100,0.05,,-RA,0.10,VWS V14.01,2013-06-07 07:57:00,
2013-06-07 04:02:00,54.9,54.9,30.02,East,80,0.0,4.0,100,0.03,,-RA,0.10,VWS V14.01,2013-06-07 08:02:00,
2013-06-07 04:07:00,54.7,54.7,30.02,SE,126,0.0,0.0,100,0.03,,OVC039,0.10,VWS V14.01,2013-06-07 08:07:00,
2013-06-07 04:12:00,54.7,54.7,30.02,ESE,105,1.0,2.0,100,0.03,,OVC039,0.10,VWS V14.01,2013-06-07 08:12:00,
2013-06-07 04:17:00,54.6,54.6,30.01,ESE,114,2.0,6.0,100,0.03,,OVC039,0.10,VWS V14.01,2013-06-07 08:17:00,
2013-06-07 04:22:00,54.4,54.4,30.01,NW,320,0.0,3.0,100,0.03,,OVC039,0.10,VWS V14.01,2013-06-07 08:22:00,
2013-06-07 04:27:00,54.4,54.4,30.01,East,90,0.0,0.0,100,0.03,,OVC039,0.10,VWS V14.01,2013-06-07 08:27:00,
2013-06-07 04:32:00,54.4,54.4,30.01,East,89,0.0,4.0,100,0.03,,OVC039,0.10,VWS V14.01,2013-06-07 08:32:00,
2013-06-07 04:37:00,54.4,54.4,30.00,ESE,122,0.0,2.0,100,0.03,,OVC039,0.10,VWS V14.01,2013-06-07 08:37:00,
2013-06-07 04:42:00,54.4,54.4,30.01,ESE,122,0.0,0.0,100,0.03,,OVC039,0.10,VWS V14.01,2013-06-07 08:42:00,
2013-06-07 04:47:00,54.3,54.3,30.01,ESE,122,0.0,1.0,100,0.03,,OVC039,0.10,VWS V14.01,2013-06-07 08:47:00,
2013-06-07 04:52:00,54.3,54.3,30.01,ESE,107,0.0,1.0,100,0.03,,OVC039,0.10,VWS V14.01,2013-06-07 08:52:00,
2013-06-07 04:57:00,54.1,54.1,30.01,NE,46,1.0,3.0,100,0.03,,OVC039,0.10,VWS V14.01,2013-06-07 08:57:00,
2013-06-07 05:02:00,54.2,54.2,30.01,North,356,0.0,1.0,100,0.00,,OVC039,0.10,VWS V14.01,2013-06-07 09:02:00,
2013-06-07 05:07:00,54.2,54.2,30.01,ESE,113,0.0,2.0,100,0.00,,OVC048,0.10,VWS V14.01,2013-06-07 09:07:00,
2013-06-07 05:12:00,54.0,54.0,30.01,East,92,0.0,2.0,100,0.00,,OVC048,0.10,VWS V14.01,2013-06-07 09:12:00,
2013-06-07 05:17:00,54.0,54.0,30.01,West,270,1.0,4.0,100,0.00,,OVC048,0.10,VWS V14.01,2013-06-07 09:17:00,
2013-06-07 05:22:00,53.9,53.9,30.01,West,281,0.0,0.0,100,0.00,,OVC048,0.10,VWS V14.01,2013-06-07 09:22:00,
2013-06-07 05:27:00,53.9,53.9,30.01,ENE,71,0.0,1.0,100,0.00,,OVC048,0.10,VWS V14.01,2013-06-07 09:27:00,
2013-06-07 05:32:00,53.7,53.7,30.01,NE,41,0.0,3.0,100,0.00,,OVC048,0.10,VWS V14.01,2013-06-07 09:32:00,
2013-06-07 05:37:00,53.7,53.7,30.01,NE,46,0.0,1.0,100,0.00,,OVC048,0.10,VWS V14.01,2013-06-07 09:37:00,
2013-06-07 05:42:00,53.6,53.6,30.01,ENE,73,1.0,1.0,100,0.01,,OVC048,0.11,VWS V14.01,2013-06-07 09:42:00,
2013-06-07 05:47:00,53.4,53.4,30.01,ENE,76,0.0,0.0,100,0.01,,OVC048,0.11,VWS V14.01,2013-06-07 09:47:00,
2013-06-07 05:52:00,53.6,53.6,30.01,ENE,75,0.0,1.0,100,0.01,,OVC048,0.11,VWS V14.01,2013-06-07 09:52:00,
2013-06-07 05:57:00,53.6,53.6,30.01,ENE,68,0.0,3.0,100,0.01,,OVC048,0.11,VWS V14.01,2013-06-07 09:57:00,
2013-06-07 06:02:00,53.6,53.6,30.01,ENE,68,0.0,0.0,100,0.01,,OVC048,0.11,VWS V14.01,2013-06-07 10:02:00,
2013-06-07 06:07:00,53.6,53.6,30.01,SE,124,0.0,2.0,100,0.01,,-RA,0.11,VWS V14.01,2013-06-07 10:07:00,
2013-06-07 06:12:00,53.6,53.6,30.01,SE,124,0.0,2.0,100,0.01,,-RA,0.11,VWS V14.01,2013-06-07 10:12:00,
2013-06-07 06:17:00,53.6,53.6,30.01,East,88,1.0,1.0,100,0.01,,-RA,0.11,VWS V14.01,2013-06-07 10:17:00,
2013-06-07 06:22:00,53.6,53.6,30.01,SE,130,0.0,1.0,100,0.01,,-RA,0.11,VWS V14.01,2013-06-07 10:22:00,
2013-06-07 06:27:00,53.6,53.6,30.01,East,80,0.0,1.0,100,0.01,,-RA,0.11,VWS V14.01,2013-06-07 10:27:00,
2013-06-07 06:32:00,53.6,53.6,30.01,East,81,0.0,2.0,100,0.01,,-RA,0.11,VWS V14.01,2013-06-07 10:32:00,
2013-06-07 06:37:00,53.7,53.7,30.01,East,82,2.0,2.0,100,0.02,,-RA,0.12,VWS V14.01,2013-06-07 10:37:00,
2013-06-07 06:42:00,53.7,53.7,30.01,SE,132,2.0,2.0,100,0.02,,-RA,0.12,VWS V14.01,2013-06-07 10:42:00,
2013-06-07 06:47:00,53.9,53.9,30.01,East,87,1.0,2.0,100,0.02,,-RA,0.12,VWS V14.01,2013-06-07 10:47:00,
2013-06-07 06:52:00,54.0,54.0,30.01,ESE,122,0.0,6.0,100,0.02,,-RA,0.12,VWS V14.01,2013-06-07 10:52:00,
2013-06-07 06:57:00,54.0,54.0,30.01,NE,49,1.0,3.0,100,0.02,,-RA,0.12,VWS V14.01,2013-06-07 10:57:00,
2013-06-07 07:02:00,54.2,54.2,30.00,ENE,73,3.0,5.0,100,0.03,,-RA,0.13,VWS V14.01,2013-06-07 11:02:00,
2013-06-07 07:07:00,54.3,54.3,30.00,East,84,1.0,2.0,100,0.02,,-RA,0.13,VWS V14.01,2013-06-07 11:07:00,
2013-06-07 07:12:00,54.4,54.4,30.00,East,89,0.0,1.0,100,0.02,,-RA,0.13,VWS V14.01,2013-06-07 11:12:00,
2013-06-07 07:17:00,54.4,54.4,30.00,East,89,0.0,1.0,100,0.03,,-RA,0.14,VWS V14.01,2013-06-07 11:17:00,
2013-06-07 07:22:00,54.6,54.6,30.01,NNE,27,1.0,2.0,100,0.03,,-RA,0.14,VWS V14.01,2013-06-07 11:22:00,
2013-06-07 07:27:00,54.6,54.6,30.01,ENE,75,0.0,3.0,100,0.03,,-RA,0.14,VWS V14.01,2013-06-07 11:27:00,
2013-06-07 07:32:00,54.6,54.6,30.01,East,80,0.0,3.0,100,0.03,,-RA,0.14,VWS V14.01,2013-06-07 11:32:00,
2013-06-07 07:37:00,54.6,54.6,30.00,ESE,109,1.0,8.0,100,0.04,,-RA,0.15,VWS V14.01,2013-06-07 11:37:00,
2013-06-07 07:42:00,54.7,54.7,30.00,ENE,61,0.0,2.0,100,0.04,,-RA,0.15,VWS V14.01,2013-06-07 11:42:00,
2013-06-07 07:47:00,54.9,54.9,30.00,ESE,116,0.0,4.0,100,0.04,,-RA,0.15,VWS V14.01,2013-06-07 11:47:00,
2013-06-07 07:52:00,55.0,55.0,30.00,East,87,0.0,1.0,100,0.04,,-RA,0.15,VWS V14.01,2013-06-07 11:52:00,
2013-06-07 07:57:00,55.0,55.0,30.00,ESE,114,3.0,12.0,100,0.05,,-RA,0.16,VWS V14.01,2013-06-07 11:57:00,
2013-06-07 08:02:00,55.1,55.1,30.00,ENE,76,0.0,1.0,100,0.03,,-RA,0.16,VWS V14.01,2013-06-07 12:02:00,
2013-06-07 08:07:00,55.1,55.1,30.00,ESE,105,0.0,6.0,100,0.03,,-RA,0.16,VWS V14.01,2013-06-07 12:07:00,
2013-06-07 08:12:00,55.3,55.3,30.00,East,98,5.0,5.0,100,0.03,,-RA,0.16,VWS V14.01,2013-06-07 12:12:00,
2013-06-07 08:17:00,55.3,55.3,30.00,ESE,103,3.0,3.0,100,0.03,,-RA,0.16,VWS V14.01,2013-06-07 12:17:00,
2013-06-07 08:22:00,55.5,55.5,30.00,ESE,104,2.0,5.0,100,0.03,,-RA,0.16,VWS V14.01,2013-06-07 12:22:00,
2013-06-07 08:27:00,55.6,55.6,30.00,ESE,118,1.0,3.0,100,0.04,,-RA,0.17,VWS V14.01,2013-06-07 12:27:00,
2013-06-07 08:32:00,55.6,55.6,29.99,SSE,159,0.0,2.0,100,0.04,,-RA,0.17,VWS V14.01,2013-06-07 12:32:00,
2013-06-07 08:37:00,55.7,55.7,30.00,ESE,118,3.0,6.0,100,0.05,,-RA,0.18,VWS V14.01,2013-06-07 12:37:00,
2013-06-07 08:42:00,55.9,55.9,29.99,SSE,159,1.0,2.0,100,0.05,,-RA,0.18,VWS V14.01,2013-06-07 12:42:00,
2013-06-07 08:47:00,56.0,56.0,30.00,ESE,110,0.0,1.0,100,0.06,,-RA,0.19,VWS V14.01,2013-06-07 12:47:00,
2013-06-07 08:52:00,56.1,56.1,29.99,ENE,61,0.0,3.0,100,0.06,,-RA,0.19,VWS V14.01,2013-06-07 12:52:00,
2013-06-07 08:57:00,56.2,56.2,29.99,ENE,76,0.0,8.0,100,0.06,,-RA,0.19,VWS V14.01,2013-06-07 12:57:00,
2013-06-07 09:02:00,56.2,56.2,29.99,ESE,113,2.0,2.0,100,0.03,,-RA,0.19,VWS V14.01,2013-06-07 13:02:00,
2013-06-07 09:07:00,56.3,56.3,29.99,ESE,107,6.0,6.0,100,0.03,,OVC001,0.19,VWS V14.01,2013-06-07 13:07:00,
2013-06-07 09:12:00,56.3,56.3,30.00,ESE,104,1.0,3.0,100,0.04,,OVC001,0.20,VWS V14.01,2013-06-07 13:12:00,
2013-06-07 09:17:00,56.5,56.5,30.00,East,94,1.0,6.0,100,0.04,,OVC001,0.20,VWS V14.01,2013-06-07 13:17:00,
2013-06-07 09:22:00,56.5,56.5,30.00,ENE,60,0.0,0.0,100,0.04,,OVC001,0.20,VWS V14.01,2013-06-07 13:22:00,
2013-06-07 09:27:00,56.6,56.6,30.00,ESE,103,1.0,5.0,100,0.05,,OVC001,0.21,VWS V14.01,2013-06-07 13:27:00,
2013-06-07 09:32:00,56.6,56.6,30.00,ENE,65,3.0,8.0,100,0.06,,OVC001,0.22,VWS V14.01,2013-06-07 13:32:00,
2013-06-07 09:37:00,56.8,56.8,30.00,East,91,1.0,3.0,100,0.07,,OVC001,0.23,VWS V14.01,2013-06-07 13:37:00,
2013-06-07 09:42:00,57.1,57.1,30.00,ESE,108,4.0,5.0,100,0.08,,OVC001,0.24,VWS V14.01,2013-06-07 13:42:00,
2013-06-07 09:47:00,57.1,57.1,30.00,NE,56,3.0,4.0,100,0.08,,OVC001,0.24,VWS V14.01,2013-06-07 13:47:00,
2013-06-07 09:52:00,57.2,57.2,30.00,ESE,107,4.0,7.0,100,0.08,,OVC001,0.24,VWS V14.01,2013-06-07 13:52:00,
2013-06-07 09:57:00,57.2,57.2,29.99,ENE,78,3.0,8.0,100,0.09,,OVC001,0.25,VWS V14.01,2013-06-07 13:57:00,
2013-06-07 10:02:00,57.1,57.1,30.00,SE,131,0.0,5.0,100,0.06,,OVC001,0.25,VWS V14.01,2013-06-07 14:02:00,
2013-06-07 10:07:00,57.1,57.1,30.00,ENE,58,2.0,13.0,100,0.06,,-RA,0.25,VWS V14.01,2013-06-07 14:07:00,
2013-06-07 10:12:00,57.1,57.1,29.99,ESE,115,1.0,12.0,100,0.07,,-RA,0.26,VWS V14.01,2013-06-07 14:12:00,
2013-06-07 10:17:00,57.1,57.1,30.00,ESE,113,2.0,4.0,100,0.07,,-RA,0.26,VWS V14.01,2013-06-07 14:17:00,
2013-06-07 10:22:00,57.2,57.2,30.00,ESE,102,2.0,2.0,100,0.09,,-RA,0.28,VWS V14.01,2013-06-07 14:22:00,
2013-06-07 10:27:00,57.2,57.2,29.99,East,88,4.0,5.0,100,0.11,,-RA,0.30,VWS V14.01,2013-06-07 14:27:00,
2013-06-07 10:32:00,57.1,57.1,29.99,East,91,1.0,3.0,100,0.11,,-RA,0.30,VWS V14.01,2013-06-07 14:32:00,
2013-06-07 10:37:00,57.1,57.1,29.99,ESE,117,1.0,8.0,100,0.11,,-RA,0.30,VWS V14.01,2013-06-07 14:37:00,
2013-06-07 10:42:00,57.1,57.1,29.99,SSE,156,6.0,6.0,100,0.12,,-RA,0.31,VWS V14.01,2013-06-07 14:42:00,
2013-06-07 10:47:00,57.1,57.1,29.99,SE,133,0.0,6.0,100,0.12,,-RA,0.31,VWS V14.01,2013-06-07 14:47:00,
2013-06-07 10:52:00,57.2,57.2,29.99,ESE,117,1.0,11.0,100,0.13,,-RA,0.32,VWS V14.01,2013-06-07 14:52:00,
2013-06-07 10:57:00,57.1,57.1,29.98,South,191,2.0,10.0,100,0.13,,-RA,0.32,VWS V14.01,2013-06-07 14:57:00,
2013-06-07 11:02:00,57.1,57.1,29.98,East,86,1.0,3.0,100,0.07,,-RA,0.32,VWS V14.01,2013-06-07 15:02:00,
2013-06-07 11:07:00,57.1,57.1,29.98,SE,143,1.0,6.0,100,0.07,,RA,0.32,VWS V14.01,2013-06-07 15:07:00,
2013-06-07 11:12:00,57.1,57.1,29.98,ENE,66,0.0,4.0,100,0.08,,RA,0.33,VWS V14.01,2013-06-07 15:12:00,
2013-06-07 11:17:00,57.1,57.1,29.98,ESE,103,12.0,12.0,100,0.08,,RA,0.33,VWS V14.01,2013-06-07 15:17:00,
2013-06-07 11:22:00,57.2,57.2,29.98,East,96,7.0,7.0,100,0.08,,RA,0.33,VWS V14.01,2013-06-07 15:22:00,
2013-06-07 11:27:00,57.2,57.2,29.98,ESE,115,0.0,7.0,100,0.08,,RA,0.33,VWS V14.01,2013-06-07 15:27:00,
2013-06-07 11:32:00,57.2,57.2,29.98,NNW,332,3.0,6.0,100,0.08,,RA,0.33,VWS V14.01,2013-06-07 15:32:00,
2013-06-07 11:37:00,57.4,57.4,29.98,East,88,3.0,5.0,100,0.08,,RA,0.33,VWS V14.01,2013-06-07 15:37:00,
2013-06-07 11:42:00,57.4,57.4,29.98,ESE,114,1.0,6.0,100,0.09,,RA,0.34,VWS V14.01,2013-06-07 15:42:00,
2013-06-07 11:47:00,57.4,57.4,29.98,ESE,105,6.0,8.0,100,0.09,,RA,0.34,VWS V14.01,2013-06-07 15:47:00,
2013-06-07 11:52:00,57.5,57.5,29.98,ESE,111,0.0,2.0,100,0.09,,RA,0.34,VWS V14.01,2013-06-07 15:52:00,
2013-06-07 11:57:00,57.5,57.5,29.98,West,273,4.0,4.0,100,0.10,,RA,0.35,VWS V14.01,2013-06-07 15:57:00,
2013-06-07 12:02:00,57.5,57.5,29.98,SSW,192,3.0,3.0,100,0.04,,RA,0.36,VWS V14.01,2013-06-07 16:02:00,
2013-06-07 12:07:00,57.5,57.5,29.98,ESE,116,1.0,4.0,100,0.04,,RA,0.36,VWS V14.01,2013-06-07 16:07:00,
2013-06-07 12:12:00,57.7,57.7,29.98,ESE,106,6.0,6.0,100,0.05,,RA,0.37,VWS V14.01,2013-06-07 16:12:00,
2013-06-07 12:17:00,57.8,57.8,29.98,ESE,110,1.0,9.0,100,0.06,,RA,0.38,VWS V14.01,2013-06-07 16:17:00,
2013-06-07 12:22:00,57.5,57.5,29.97,East,99,1.0,4.0,100,0.06,,RA,0.38,VWS V14.01,2013-06-07 16:22:00,
2013-06-07 12:27:00,57.5,57.5,29.97,ESE,108,0.0,5.0,100,0.07,,RA,0.39,VWS V14.01,2013-06-07 16:27:00,
2013-06-07 12:32:00,57.5,57.5,29.97,East,101,1.0,7.0,100,0.08,,RA,0.40,VWS V14.01,2013-06-07 16:32:00,
2013-06-07 12:37:00,57.7,57.7,29.97,SE,125,2.0,4.0,100,0.08,,RA,0.40,VWS V14.01,2013-06-07 16:37:00,
2013-06-07 12:42:00,57.7,57.7,29.96,East,79,5.0,5.0,100,0.09,,RA,0.41,VWS V14.01,2013-06-07 16:42:00,
2013-06-07 12:47:00,57.6,57.6,29.96,East,87,6.0,6.0,100,0.09,,RA,0.41,VWS V14.01,2013-06-07 16:47:00,
2013-06-07 12:52:00,57.7,57.7,29.95,East,99,4.0,5.0,100,0.10,,RA,0.42,VWS V14.01,2013-06-07 16:52:00,
2013-06-07 12:57:00,57.5,57.5,29.95,NE,46,2.0,6.0,100,0.10,,RA,0.42,VWS V14.01,2013-06-07 16:57:00,
2013-06-07 13:02:00,57.7,57.7,29.94,ESE,104,0.0,3.0,100,0.07,,RA,0.43,VWS V14.01,2013-06-07 17:02:00,
2013-06-07 13:07:00,57.7,57.7,29.94,ESE,109,5.0,12.0,100,0.08,,-RA,0.44,VWS V14.01,2013-06-07 17:07:00,
2013-06-07 13:12:00,57.9,57.9,29.94,ENE,78,4.0,4.0,100,0.09,,-RA,0.45,VWS V14.01,2013-06-07 17:12:00,
2013-06-07 13:17:00,57.7,57.7,29.94,ESE,102,0.0,7.0,100,0.10,,-RA,0.46,VWS V14.01,2013-06-07 17:17:00,
2013-06-07 13:22:00,57.7,57.7,29.94,ESE,116,0.0,3.0,100,0.12,,-RA,0.48,VWS V14.01,2013-06-07 17:22:00,
2013-06-07 13:27:00,57.7,57.7,29.93,NE,48,1.0,2.0,100,0.13,,-RA,0.49,VWS V14.01,2013-06-07 17:27:00,
2013-06-07 13:32:00,57.7,57.7,29.93,ENE,57,2.0,5.0,100,0.15,,-RA,0.51,VWS V14.01,2013-06-07 17:32:00,
2013-06-07 13:37:00,57.7,57.7,29.93,East,86,0.0,9.0,100,0.17,,-RA,0.53,VWS V14.01,2013-06-07 17:37:00,
2013-06-07 13:42:00,57.7,57.7,29.93,ESE,114,2.0,7.0,100,0.20,,-RA,0.56,VWS V14.01,2013-06-07 17:42:00,
2013-06-07 13:47:00,57.7,57.7,29.92,SE,128,2.0,7.0,100,0.24,,-RA,0.60,VWS V14.01,2013-06-07 17:47:00,
2013-06-07 13:52:00,57.7,57.7,29.93,SE,139,1.0,4.0,100,0.26,,-RA,0.62,VWS V14.01,2013-06-07 17:52:00,
2013-06-07 13:57:00,57.8,57.8,29.92,ESE,105,3.0,3.0,100,0.28,,-RA,0.64,VWS V14.01,2013-06-07 17:57:00,
2013-06-07 14:02:00,57.7,57.7,29.92,East,79,1.0,5.0,100,0.26,,-RA,0.69,VWS V14.01,2013-06-07 18:02:00,
2013-06-07 14:07:00,57.8,57.8,29.92,East,98,2.0,10.0,100,0.29,, +RA,0.72,VWS V14.01,2013-06-07 18:07:00,
2013-06-07 14:12:00,57.7,57.7,29.92,East,99,1.0,6.0,100,0.32,, +RA,0.75,VWS V14.01,2013-06-07 18:12:00,
2013-06-07 14:17:00,57.9,57.9,29.92,East,96,0.0,10.0,100,0.33,, +RA,0.76,VWS V14.01,2013-06-07 18:17:00,
2013-06-07 14:22:00,57.5,57.5,29.92,NE,51,1.0,5.0,100,0.35,, +RA,0.78,VWS V14.01,2013-06-07 18:22:00,
2013-06-07 14:27:00,57.9,57.9,29.92,NE,43,3.0,6.0,100,0.37,, +RA,0.80,VWS V14.01,2013-06-07 18:27:00,
2013-06-07 14:32:00,57.7,57.7,29.92,North,357,1.0,5.0,100,0.40,, +RA,0.83,VWS V14.01,2013-06-07 18:32:00,
2013-06-07 14:37:00,57.8,57.8,29.91,East,81,5.0,5.0,100,0.42,, +RA,0.85,VWS V14.01,2013-06-07 18:37:00,
2013-06-07 14:42:00,57.8,57.8,29.91,ENE,65,0.0,1.0,100,0.44,, +RA,0.87,VWS V14.01,2013-06-07 18:42:00,
2013-06-07 14:47:00,57.8,57.8,29.91,East,93,0.0,5.0,100,0.46,, +RA,0.89,VWS V14.01,2013-06-07 18:47:00,
2013-06-07 14:52:00,57.8,57.8,29.91,ESE,103,1.0,3.0,100,0.48,, +RA,0.91,VWS V14.01,2013-06-07 18:52:00,
2013-06-07 14:57:00,57.8,57.8,29.91,NE,53,2.0,4.0,100,0.50,, +RA,0.93,VWS V14.01,2013-06-07 18:57:00,
2013-06-07 15:03:00,57.7,57.7,29.91,ESE,102,1.0,3.0,100,0.27,, +RA,0.94,VWS V14.01,2013-06-07 19:03:00,
2013-06-07 15:08:00,57.7,57.7,29.91,ESE,104,0.0,3.0,100,0.28,, +RA,0.95,VWS V14.01,2013-06-07 19:08:00,
2013-06-07 15:13:00,57.7,57.7,29.91,East,87,2.0,3.0,100,0.29,, +RA,0.96,VWS V14.01,2013-06-07 19:13:00,
2013-06-07 15:18:00,57.7,57.7,29.91,SE,125,4.0,4.0,100,0.31,, +RA,0.98,VWS V14.01,2013-06-07 19:18:00,
2013-06-07 15:23:00,57.5,57.5,29.91,ENE,60,1.0,4.0,100,0.37,, +RA,1.04,VWS V14.01,2013-06-07 19:23:00,
2013-06-07 15:28:00,57.7,57.7,29.91,East,80,2.0,2.0,100,0.39,, +RA,1.06,VWS V14.01,2013-06-07 19:28:00,
2013-06-07 15:33:00,57.7,57.7,29.90,East,88,0.0,8.0,100,0.40,, +RA,1.07,VWS V14.01,2013-06-07 19:33:00,
2013-06-07 15:38:00,57.7,57.7,29.90,ESE,108,0.0,3.0,100,0.41,, +RA,1.08,VWS V14.01,2013-06-07 19:38:00,
2013-06-07 15:43:00,57.8,57.8,29.91,SE,138,0.0,0.0,100,0.43,, +RA,1.10,VWS V14.01,2013-06-07 19:43:00,
2013-06-07 15:48:00,58.1,58.1,29.91,SE,130,0.0,0.0,100,0.46,, +RA,1.13,VWS V14.01,2013-06-07 19:48:00,
2013-06-07 15:53:00,58.0,58.0,29.91,NE,48,1.0,2.0,100,0.48,, +RA,1.15,VWS V14.01,2013-06-07 19:53:00,
2013-06-07 15:58:00,58.0,58.0,29.90,East,86,0.0,3.0,100,0.48,, +RA,1.15,VWS V14.01,2013-06-07 19:58:00,
2013-06-07 16:03:00,57.8,57.8,29.91,ESE,109,0.0,2.0,100,0.27,, +RA,1.21,VWS V14.01,2013-06-07 20:03:00,
2013-06-07 16:08:00,57.7,57.7,29.90,ESE,105,0.0,6.0,100,0.30,, +RA,1.24,VWS V14.01,2013-06-07 20:08:00,
2013-06-07 16:14:00,57.7,57.7,29.90,ENE,77,1.0,4.0,100,0.34,, +RA,1.28,VWS V14.01,2013-06-07 20:14:00,
2013-06-07 16:19:00,57.7,57.7,29.90,ESE,104,2.0,4.0,100,0.36,, +RA,1.30,VWS V14.01,2013-06-07 20:19:00,
2013-06-07 16:24:00,57.7,57.7,29.89,ENE,70,1.0,2.0,100,0.39,, +RA,1.33,VWS V14.01,2013-06-07 20:24:00,
2013-06-07 16:29:00,57.7,57.7,29.89,ENE,58,1.0,5.0,100,0.40,, +RA,1.34,VWS V14.01,2013-06-07 20:29:00,
2013-06-07 16:34:00,57.8,57.8,29.89,NE,49,1.0,3.0,100,0.42,, +RA,1.36,VWS V14.01,2013-06-07 20:34:00,
2013-06-07 16:39:00,57.7,57.7,29.89,East,86,0.0,0.0,100,0.43,, +RA,1.37,VWS V14.01,2013-06-07 20:39:00,
2013-06-07 17:00:00,57.7,57.7,29.88,East,90,1.0,6.0,100,0.70,, +RA,1.64,VWS V14.01,2013-06-07 21:00:00,
2013-06-07 17:13:00,57.7,57.7,29.87,NE,55,1.0,2.0,100,0.30,, +RA,1.49,VWS V14.01,2013-06-07 21:13:00,
2013-06-07 17:18:00,57.7,57.7,29.87,NW,307,0.0,2.0,100,0.31,, +RA,1.50,VWS V14.01,2013-06-07 21:18:00,
2013-06-07 17:23:00,57.7,57.7,29.87,South,189,1.0,1.0,100,0.33,, +RA,1.52,VWS V14.01,2013-06-07 21:23:00,
2013-06-07 17:28:00,57.7,57.7,29.87,North,4,0.0,3.0,100,0.35,, +RA,1.54,VWS V14.01,2013-06-07 21:28:00,
2013-06-07 17:37:00,57.7,57.7,29.86,ENE,58,1.0,1.0,100,0.00,, +RA,1.39,VWS V14.01,2013-06-07 21:37:00,
2013-06-07 18:00:00,57.7,57.7,29.83,NE,45,1.0,9.0,100,0.48,, +RA,1.67,VWS V14.01,2013-06-07 22:00:00,
2013-06-07 18:38:00,57.4,57.4,29.82,ESE,115,1.0,1.0,100,0.45,, +RA,2.09,VWS V14.01,2013-06-07 22:38:00,
2013-06-07 18:43:00,57.4,57.4,29.80,East,80,1.0,5.0,100,0.50,, +RA,2.14,VWS V14.01,2013-06-07 22:43:00,
2013-06-07 18:48:00,57.4,57.4,29.79,East,81,0.0,5.0,100,0.57,, +RA,2.21,VWS V14.01,2013-06-07 22:48:00,
2013-06-07 18:53:00,57.4,57.4,29.79,ENE,74,1.0,6.0,100,0.69,, +RA,2.33,VWS V14.01,2013-06-07 22:53:00,
2013-06-07 18:58:00,57.2,57.2,29.79,SE,141,1.0,4.0,100,0.76,, +RA,2.40,VWS V14.01,2013-06-07 22:58:00,
2013-06-07 19:03:00,57.2,57.2,29.80,South,174,1.0,9.0,100,0.80,, +RA,2.47,VWS V14.01,2013-06-07 23:03:00,
2013-06-07 19:08:00,57.2,57.2,29.82,North,4,3.0,3.0,100,0.87,, +RA,2.54,VWS V14.01,2013-06-07 23:08:00,
2013-06-07 19:14:00,57.2,57.2,29.82,ENE,66,0.0,2.0,100,0.91,, +RA,2.58,VWS V14.01,2013-06-07 23:14:00,
2013-06-07 19:19:00,57.2,57.2,29.81,NNW,348,0.0,4.0,100,0.95,, +RA,2.62,VWS V14.01,2013-06-07 23:19:00,
2013-06-07 19:24:00,57.3,57.3,29.80,North,3,1.0,2.0,100,0.99,, +RA,2.66,VWS V14.01,2013-06-07 23:24:00,
2013-06-07 19:29:00,57.2,57.2,29.80,NE,44,4.0,5.0,100,1.03,, +RA,2.70,VWS V14.01,2013-06-07 23:29:00,
2013-06-07 19:34:00,57.1,57.1,29.80,ESE,118,1.0,2.0,100,1.06,, +RA,2.73,VWS V14.01,2013-06-07 23:34:00,
2013-06-07 19:39:00,57.1,57.1,29.80,NE,56,1.0,5.0,100,1.17,, +RA,2.84,VWS V14.01,2013-06-07 23:39:00,
2013-06-07 19:44:00,57.1,57.1,29.81,ENE,74,3.0,3.0,100,1.23,, +RA,2.90,VWS V14.01,2013-06-07 23:44:00,
2013-06-07 19:49:00,57.1,57.1,29.80,East,81,1.0,6.0,100,1.32,, +RA,2.99,VWS V14.01,2013-06-07 23:49:00,
2013-06-07 19:54:00,57.0,57.0,29.81,East,83,3.0,3.0,100,1.38,, +RA,3.05,VWS V14.01,2013-06-07 23:54:00,
2013-06-07 19:59:00,57.1,57.1,29.82,East,80,3.0,4.0,100,1.40,, +RA,3.07,VWS V14.01,2013-06-07 23:59:00,
2013-06-07 20:04:00,57.1,57.1,29.81,North,350,0.0,3.0,100,0.69,, +RA,3.13,VWS V14.01,2013-06-08 00:04:00,
2013-06-07 20:10:00,56.9,56.9,29.81,ENE,62,0.0,5.0,100,0.71,, +RA,3.15,VWS V14.01,2013-06-08 00:10:00,
2013-06-07 20:15:00,56.9,56.9,29.80,North,357,0.0,1.0,100,0.72,, +RA,3.16,VWS V14.01,2013-06-08 00:15:00,
2013-06-07 20:20:00,56.9,56.9,29.81,ENE,71,3.0,11.0,100,0.73,, +RA,3.17,VWS V14.01,2013-06-08 00:20:00,
2013-06-07 20:25:00,56.9,56.9,29.79,NNW,347,0.0,2.0,100,0.74,, +RA,3.18,VWS V14.01,2013-06-08 00:25:00,
2013-06-07 20:30:00,56.8,56.8,29.80,ENE,63,0.0,8.0,100,0.74,, +RA,3.18,VWS V14.01,2013-06-08 00:30:00,
2013-06-07 20:35:00,56.6,56.6,29.80,ENE,71,1.0,2.0,100,0.76,, +RA,3.20,VWS V14.01,2013-06-08 00:35:00,
2013-06-07 20:40:00,56.8,56.8,29.79,North,3,1.0,3.0,100,0.77,, +RA,3.21,VWS V14.01,2013-06-08 00:40:00,
2013-06-07 20:45:00,56.5,56.5,29.80,West,269,0.0,3.0,100,0.77,, +RA,3.21,VWS V14.01,2013-06-08 00:45:00,
2013-06-07 20:50:00,56.3,56.3,29.79,NE,35,0.0,2.0,100,0.78,, +RA,3.22,VWS V14.01,2013-06-08 00:50:00,
2013-06-07 20:55:00,56.3,56.3,29.79,ENE,73,1.0,6.0,100,0.78,, +RA,3.22,VWS V14.01,2013-06-08 00:55:00,
2013-06-07 21:00:00,56.2,56.2,29.79,NE,42,2.0,11.0,100,0.79,, +RA,3.23,VWS V14.01,2013-06-08 01:00:00,
2013-06-07 21:05:00,56.0,56.0,29.78,SW,216,2.0,3.0,100,0.14,,RA,3.24,VWS V14.01,2013-06-08 01:05:00,
2013-06-07 21:10:00,56.0,56.0,29.77,NNE,19,2.0,2.0,100,0.14,,RA,3.24,VWS V14.01,2013-06-08 01:10:00,
2013-06-07 21:15:00,55.9,55.9,29.78,North,5,0.0,3.0,100,0.14,,RA,3.24,VWS V14.01,2013-06-08 01:15:00,
2013-06-07 21:20:00,55.9,55.9,29.79,ENE,62,5.0,5.0,100,0.15,,RA,3.25,VWS V14.01,2013-06-08 01:20:00,
2013-06-07 21:25:00,55.8,55.8,29.79,ENE,76,3.0,3.0,100,0.26,,RA,3.36,VWS V14.01,2013-06-08 01:25:00,
2013-06-07 21:30:00,55.6,55.6,29.78,North,359,2.0,3.0,100,0.41,,RA,3.51,VWS V14.01,2013-06-08 01:30:00,
2013-06-07 21:35:00,55.6,55.6,29.78,NNW,340,0.0,4.0,100,0.60,,RA,3.70,VWS V14.01,2013-06-08 01:35:00,
2013-06-07 21:40:00,55.6,55.6,29.78,ENE,72,4.0,5.0,100,0.71,,RA,3.81,VWS V14.01,2013-06-08 01:40:00,
2013-06-07 21:45:00,55.3,55.3,29.78,NE,51,0.0,6.0,100,0.76,,RA,3.86,VWS V14.01,2013-06-08 01:45:00,
2013-06-07 21:50:00,55.3,55.3,29.78,NNE,21,2.0,5.0,100,0.77,,RA,3.87,VWS V14.01,2013-06-08 01:50:00,
2013-06-07 21:56:00,55.3,55.3,29.78,NE,51,2.0,3.0,100,0.81,,RA,3.91,VWS V14.01,2013-06-08 01:56:00,
2013-06-07 22:01:00,55.2,55.2,29.78,NE,54,2.0,4.0,100,0.83,,RA,3.93,VWS V14.01,2013-06-08 02:01:00,
2013-06-07 22:06:00,55.2,55.2,29.78,ENE,69,1.0,3.0,100,0.74,, +RA,3.97,VWS V14.01,2013-06-08 02:06:00,
2013-06-07 22:11:00,55.2,55.2,29.78,North,0,0.0,2.0,100,0.74,, +RA,3.97,VWS V14.01,2013-06-08 02:11:00,
2013-06-07 22:16:00,55.2,55.2,29.77,ENE,69,2.0,3.0,100,0.76,, +RA,3.99,VWS V14.01,2013-06-08 02:16:00,
2013-06-07 22:21:00,55.0,55.0,29.77,WNW,289,0.0,1.0,100,0.77,, +RA,4.00,VWS V14.01,2013-06-08 02:21:00,
2013-06-07 22:26:00,55.0,55.0,29.76,WSW,243,0.0,2.0,100,0.78,, +RA,4.01,VWS V14.01,2013-06-08 02:26:00,
2013-06-07 22:31:00,55.0,55.0,29.76,ENE,77,3.0,8.0,100,0.79,, +RA,4.02,VWS V14.01,2013-06-08 02:31:00,
2013-06-07 22:36:00,55.0,55.0,29.76,ENE,78,1.0,4.0,100,0.85,, +RA,4.08,VWS V14.01,2013-06-08 02:36:00,
2013-06-07 22:41:00,54.9,54.9,29.76,ENE,70,0.0,2.0,100,0.87,, +RA,4.10,VWS V14.01,2013-06-08 02:41:00,
2013-06-07 22:46:00,54.9,54.9,29.76,East,80,1.0,2.0,100,0.90,, +RA,4.13,VWS V14.01,2013-06-08 02:46:00,
2013-06-07 22:52:00,54.9,54.9,29.75,North,358,2.0,4.0,100,0.94,, +RA,4.17,VWS V14.01,2013-06-08 02:52:00,
2013-06-07 22:57:00,54.8,54.8,29.74,NNE,32,0.0,4.0,100,0.95,, +RA,4.18,VWS V14.01,2013-06-08 02:57:00,
2013-06-07 23:02:00,54.7,54.7,29.74,NNW,346,2.0,6.0,100,0.27,, +RA,4.20,VWS V14.01,2013-06-08 03:02:00,
2013-06-07 23:07:00,54.7,54.7,29.75,NE,52,4.0,5.0,100,0.30,, +RA,4.23,VWS V14.01,2013-06-08 03:07:00,
2013-06-07 23:12:00,54.6,54.6,29.74,ENE,70,1.0,2.0,100,0.35,, +RA,4.28,VWS V14.01,2013-06-08 03:12:00,
2013-06-07 23:17:00,54.6,54.6,29.74,NNW,347,5.0,9.0,100,0.37,, +RA,4.30,VWS V14.01,2013-06-08 03:17:00,
2013-06-07 23:22:00,54.4,54.4,29.73,North,6,0.0,3.0,100,0.37,, +RA,4.30,VWS V14.01,2013-06-08 03:22:00,
2013-06-07 23:27:00,54.4,54.4,29.73,WNW,295,1.0,2.0,100,0.39,, +RA,4.32,VWS V14.01,2013-06-08 03:27:00,
2013-06-07 23:33:00,54.3,54.3,29.73,NW,324,0.0,3.0,100,0.43,, +RA,4.36,VWS V14.01,2013-06-08 03:33:00,
2013-06-07 23:37:00,54.3,54.3,29.72,ENE,57,3.0,5.0,100,0.46,, +RA,4.39,VWS V14.01,2013-06-08 03:37:00,
2013-06-07 23:42:00,54.2,54.2,29.73,ENE,69,2.0,2.0,100,0.52,, +RA,4.45,VWS V14.01,2013-06-08 03:42:00,
2013-06-07 23:48:00,54.1,54.1,29.71,East,95,1.0,8.0,100,0.66,, +RA,4.59,VWS V14.01,2013-06-08 03:48:00,
2013-06-07 23:53:00,54.0,54.0,29.71,ENE,64,1.0,2.0,100,0.79,, +RA,4.72,VWS V14.01,2013-06-08 03:53:00,
2013-06-07 23:58:00,54.0,54.0,29.72,South,170,0.0,2.0,100,0.95,, +RA,4.88,VWS V14.01,2013-06-08 03:58:00,